Weather History for Bishop, CA

Change the Weather History Date:

Monday, June 24, 2013

  Actual Average Record
Temperature  
Mean Temperature 71 °F 74 °F  
Max Temperature 87 °F 95 °F 105 °F (1954)
Min Temperature 54 °F 53 °F 42 °F (1944)
Degree Days  
Heating Degree Days 0 0  
Month to date heating degree days 0 17  
Since 1 June heating degree days 0 17  
Since 1 July heating degree days 3851 4175  
Cooling Degree Days 6 9  
Month to date cooling degree days 231 154  
Year to date cooling degree days 317 222  
Since 1 June cooling degree days 231 154  
Growing Degree Days 20 (Base 50)    
Moisture  
Dew Point 36 °F    
Average Humidity 30    
Maximum Humidity 44    
Minimum Humidity 16    
Precipitation  
Precipitation 0.00 in 0.01 in 0.01 in (1989)
Month to date precipitation T 0.16  
Year to date precipitation 0.47 3.04  
Snow  
Snow 0.00 in 0.00 in - ()
Month to date snowfall 0.0 0.0  
Since 1 June snowfall 0.0 0.0  
Since 1 July snowfall 2.8 6.8  
Snow Depth 0.00 in    
Sea Level Pressure  
Sea Level Pressure 29.66 in    
Wind  
Wind Speed 6 mph (NNW)    
Max Wind Speed 20 mph    
Max Gust Speed 25 mph    
Visibility 10 miles    
Events      
T = Trace of Precipitation, MM = Missing Value Source: NWS Daily Summary

Daily Weather History Graph

Daily Weather History Graph

Search for Another Location

Airport:

Trip Planner

Search our weather history database for the weather conditions in past years. The results will help you decide how hot, cold, wet, or windy it might be!

Date:

Astronomy

Jun. 24, 2013 Rise Set
Actual Time 5:33 AM PDT 8:18 PM PDT
Civil Twilight 5:02 AM PDT 8:49 PM PDT
Nautical Twilight 4:23 AM PDT 9:27 PM PDT
Astronomical Twilight 3:40 AM PDT 10:11 PM PDT
Moon 9:27 PM PDT (6/24) 7:04 AM PDT (6/24)
Length of Visible Light 15h 46m
Length of Day
14h 44m
Full, 97% of the Moon is Illuminated
Jun 24
Full
Jun 29
Last Quarter
Jul 8
New
Jul 15
First Quarter
Jul 22
Full

Hourly Weather History & Observations

Time (PDT) Temp. Dew Point Humidity Pressure Visibility Wind Dir Wind Speed Gust Speed Precip Events Conditions
12:56 AM 62.1 °F 30.9 °F 31% 29.62 in 10.0 mi NNW 8.1 mph - N/A   Clear
1:56 AM 64.9 °F 30.9 °F 28% 29.60 in 10.0 mi North 13.8 mph 20.7 mph N/A   Clear
2:56 AM 62.1 °F 32.0 °F 32% 29.60 in 10.0 mi NW 4.6 mph - N/A   Clear
3:56 AM 57.0 °F 32.0 °F 39% 29.61 in 10.0 mi NNW 4.6 mph - N/A   Clear
4:56 AM 55.0 °F 30.9 °F 40% 29.62 in 10.0 mi Calm Calm - N/A   Clear
5:56 AM 55.9 °F 32.0 °F 40% 29.64 in 10.0 mi NNW 3.5 mph - N/A   Clear
6:56 AM 62.1 °F 32.0 °F 32% 29.64 in 10.0 mi NNW 3.5 mph - N/A   Clear
7:56 AM 63.0 °F 34.0 °F 34% 29.65 in 10.0 mi East 4.6 mph - N/A   Partly Cloudy
8:56 AM 70.0 °F 33.1 °F 26% 29.65 in 10.0 mi Calm Calm - N/A   Overcast
9:56 AM 71.1 °F 35.1 °F 27% 29.65 in 10.0 mi Calm Calm - N/A   Partly Cloudy
10:56 AM 73.9 °F 35.1 °F 24% 29.67 in 10.0 mi SSE 4.6 mph - N/A   Partly Cloudy
11:56 AM 78.1 °F 33.1 °F 19% 29.65 in 10.0 mi Calm Calm - N/A   Mostly Cloudy
12:56 PM 81.0 °F 33.1 °F 18% 29.63 in 10.0 mi Variable 6.9 mph - N/A   Mostly Cloudy
1:56 PM 80.1 °F 34.0 °F 19% 29.64 in 10.0 mi SSW 5.8 mph - N/A   Overcast
2:56 PM 82.9 °F 35.1 °F 18% 29.63 in 10.0 mi ENE 4.6 mph - N/A   Overcast
3:56 PM 86.0 °F 36.0 °F 17% 29.63 in 10.0 mi WNW 8.1 mph - N/A   Mostly Cloudy
4:56 PM 84.0 °F 37.0 °F 19% 29.64 in 10.0 mi WNW 6.9 mph - N/A   Scattered Clouds
5:56 PM 82.9 °F 39.9 °F 22% 29.65 in 10.0 mi NW 11.5 mph 19.6 mph N/A   Mostly Cloudy
6:56 PM 81.0 °F 39.0 °F 22% 29.67 in 10.0 mi West 11.5 mph 23.0 mph N/A   Scattered Clouds
7:56 PM 75.9 °F 41.0 °F 29% 29.70 in 10.0 mi NNW 12.7 mph - N/A   Clear
8:56 PM 72.0 °F 41.0 °F 33% 29.72 in 10.0 mi North 10.4 mph - N/A   Partly Cloudy
9:56 PM 70.0 °F 41.0 °F 35% 29.74 in 10.0 mi NNW 9.2 mph - N/A   Scattered Clouds
10:56 PM 66.0 °F 42.1 °F 42% 29.77 in 10.0 mi North 10.4 mph - N/A   Partly Cloudy
11:56 PM 64.0 °F 42.1 °F 45% 29.77 in 10.0 mi NW 6.9 mph - N/A   Clear